Wind_Speed
26 27 27 28 29 29 30 31 32 33 34 34 35 35 35 35 35 34 35 35 36 35 36 37 38 37 38 39 40 40 41 41 41 41 41 41 40 40 40 40 40 41 41 41
26 27 27 27 28 28 29 30 31 32 33 34 35 36 36 36 35 35 35 35 35 35 35 36 38 38 39 39 40 41 42 42 42 42 42 42 41 41 41 42 42 42 42 41
26 27 27 28 28 28 29 30 31 31 32 34 35 35 35 36 36 36 35 35 35 35 35 36 37 38 38 39 39 41 41 42 43 43 43 43 43 42 42 43 43 43 43 42
26 27 27 28 29 29 29 30 30 31 32 32 33 34 33 34 35 35 35 35 35 35 35 36 37 38 38 38 38 40 41 41 42 42 43 42 42 43 43 43 43 43 43 43
26 27 27 28 29 30 30 30 30 31 31 32 32 33 32 32 34 34 35 35 35 35 35 35 36 37 38 38 38 38 39 40 41 41 42 42 42 43 43 43 44 44 44 44
26 27 27 28 28 29 30 29 30 31 32 32 30 32 31 30 31 32 33 34 34 34 35 35 34 36 37 38 38 38 39 39 39 40 41 42 43 43 43 44 45 45 45 46
25 26 26 27 27 28 29 29 30 30 31 32 30 31 31 30 30 30 31 32 32 33 34 34 34 35 36 37 38 38 39 39 39 39 40 41 43 44 44 44 45 45 45 45
24 25 25 25 26 27 28 29 30 31 31 31 30 31 29 29 29 30 30 31 32 32 32 33 33 34 35 36 37 38 38 38 39 39 40 41 42 43 44 44 45 45 46 46
25 25 25 25 25 27 28 28 29 30 31 31 31 30 29 28 29 29 29 30 31 31 32 32 33 33 34 34 35 36 37 38 38 39 39 40 41 42 42 43 44 44 44 45
25 26 26 26 26 26 27 27 27 28 29 30 31 30 28 28 29 29 29 29 29 30 30 31 32 32 33 34 35 35 36 37 38 38 38 39 39 40 41 41 42 42 43 43
25 26 26 26 26 25 26 26 26 28 28 29 29 29 27 27 28 29 29 29 29 30 30 31 31 32 32 33 34 34 35 36 37 36 37 37 38 38 39 40 41 41 42 42
25 26 26 26 26 26 26 26 27 28 29 29 30 29 27 27 28 29 29 29 29 29 30 30 31 32 32 32 34 34 35 35 36 36 36 37 37 37 38 39 39 40 40 40
24 26 26 26 26 26 26 26 27 28 29 30 30 28 27 27 28 28 29 29 29 29 29 30 31 31 32 33 33 34 34 35 35 35 35 36 36 36 36 36 37 38 39 39
23 24 25 25 26 26 27 26 26 28 29 29 28 27 26 27 28 28 29 29 29 29 29 30 30 31 32 32 33 33 33 33 33 33 34 34 34 34 35 36 36 37 38 38
24 25 24 24 25 26 27 27 27 28 28 29 28 27 26 27 28 28 29 29 29 29 29 29 29 30 31 32 32 32 33 32 32 32 32 32 32 33 34 35 35 36 36 37
25 25 25 24 24 25 26 26 26 27 27 28 27 27 26 27 28 29 29 29 29 29 29 29 29 30 31 31 31 32 32 32 32 32 32 32 32 33 33 34 35 35 35 36
24 24 24 25 24 26 26 24 25 25 25 26 26 25 25 26 27 28 28 29 29 29 29 29 30 30 30 31 31 31 31 31 31 31 32 32 32 32 32 33 34 35 35 35
21 22 23 24 25 26 25 24 24 25 25 25 26 26 26 26 27 27 28 29 29 30 29 30 30 31 31 31 31 31 30 30 31 31 31 32 32 32 31 32 32 32 33 33
20 21 22 23 24 25 24 23 24 24 24 25 26 26 27 28 28 28 28 29 30 30 30 30 30 31 31 31 31 30 30 30 30 30 30 31 31 31 31 31 30 31 31 32
20 20 21 23 23 23 22 22 23 23 23 24 25 25 26 27 28 28 29 30 30 31 31 31 31 31 31 30 30 29 29 29 29 29 29 30 30 30 29 29 29 29 29 30
20 21 21 22 22 22 21 21 22 22 23 24 25 25 26 27 27 27 28 29 30 31 31 31 31 31 31 31 30 29 29 28 28 29 29 29 29 28 28 28 28 27 27 27
20 21 22 22 23 22 21 21 21 22 24 24 25 25 25 26 26 27 27 27 28 29 30 30 30 30 30 30 29 29 28 28 28 28 28 28 27 26 26 26 26 25 25 25
21 21 22 23 23 22 22 22 22 23 24 25 25 26 26 25 25 25 26 26 27 27 28 28 28 28 27 27 27 27 28 28 28 27 27 26 25 25 24 24 24 24 24 25
21 22 22 23 22 22 21 22 23 23 23 24 24 24 24 23 23 24 24 25 25 25 26 26 25 25 24 24 25 25 26 26 26 26 25 25 24 23 23 23 23 23 24 24
22 22 22 22 21 21 21 22 22 22 22 22 22 22 22 22 22 22 22 23 23 23 23 22 22 22 21 21 22 22 23 24 24 23 23 23 23 22 22 22 22 22 22 22
21 21 21 20 19 19 19 19 20 20 21 21 21 21 21 22 22 22 22 23 22 22 21 21 20 20 19 19 20 20 21 21 21 21 21 21 20 20 20 20 20 20 21 21
Wind_Direction
255 255 256 256 255 254 254 254 255 255 256 256 256 255 255 254 254 255 255 254 254 255 255 255 255 255 253 253 253 253 254 254 256 257 257 258 259 259 259 260 261 262 262 263
256 257 257 257 256 255 255 255 256 257 257 257 256 255 254 254 254 255 255 255 255 257 257 255 255 255 254 253 253 253 254 255 255 257 257 258 259 260 260 260 261 262 262 263
260 259 258 256 255 255 255 256 256 257 258 258 257 255 254 254 254 254 255 255 255 256 256 256 255 255 255 255 254 254 255 256 256 256 257 259 260 261 260 260 261 262 262 263
262 260 258 257 256 257 256 257 257 258 259 259 258 258 255 254 254 255 255 256 256 256 257 257 256 256 256 256 256 255 256 258 258 258 258 259 259 259 260 260 261 262 263 264
263 261 258 257 256 257 257 257 258 258 260 260 260 260 257 255 255 255 256 256 257 258 258 258 258 256 257 256 256 257 258 258 258 259 260 259 259 259 260 261 262 263 264 264
263 261 258 257 255 257 257 257 258 259 259 260 261 262 260 257 258 258 257 257 258 257 258 259 259 258 257 257 257 258 259 259 259 260 260 260 261 261 261 262 263 264 265 265
264 261 258 257 256 256 256 257 259 260 260 262 262 263 263 260 260 260 258 257 258 259 260 261 261 260 258 257 257 258 259 261 262 263 262 262 262 263 264 264 265 266 266 267
267 262 260 258 258 258 258 257 258 261 263 264 264 264 264 263 262 260 259 258 258 259 260 261 262 261 261 260 259 260 261 262 263 263 263 264 264 264 265 265 266 267 268 267
268 264 261 261 261 260 260 258 259 261 262 264 264 266 264 263 263 262 260 259 259 260 261 261 261 261 262 263 262 262 262 263 263 264 264 265 265 265 265 266 267 267 268 268
271 269 266 264 263 262 261 259 258 258 262 265 267 267 267 265 264 265 264 262 262 263 264 263 263 263 264 265 265 264 264 264 264 264 264 264 265 265 266 266 267 268 269 270
271 270 268 266 265 264 260 258 257 259 261 265 268 268 268 267 266 265 265 265 265 264 265 265 265 265 265 266 267 267 266 265 265 265 265 265 265 265 266 267 267 268 269 270
270 269 269 267 265 262 260 258 258 259 262 264 267 269 268 268 267 265 265 264 264 264 264 264 265 266 266 266 267 267 266 266 266 266 265 265 264 265 266 267 267 268 269 270
271 270 269 267 264 262 260 259 259 259 260 262 265 269 269 268 266 267 266 265 265 265 265 266 267 267 267 267 267 268 268 267 266 266 266 266 267 267 267 267 268 269 270 271
270 269 267 267 267 263 261 260 258 258 259 262 264 268 269 269 268 268 268 267 265 265 266 267 267 267 266 267 268 268 269 268 266 265 266 266 267 267 268 268 269 270 271 272
269 269 268 267 266 263 262 261 260 260 261 263 265 267 268 268 269 268 268 268 266 266 267 267 267 266 266 267 268 268 268 267 265 264 264 265 266 267 268 269 269 270 272 273
268 269 267 267 265 263 262 262 262 262 262 264 265 266 267 267 269 270 269 268 267 267 267 267 267 266 266 267 268 268 268 266 264 263 263 265 267 268 269 270 271 271 273 274
269 269 267 266 265 263 263 264 263 263 264 265 266 267 267 268 270 271 271 270 269 267 268 268 267 267 268 268 269 269 267 265 264 264 264 266 268 269 270 271 272 273 274 276
269 268 268 268 265 266 267 266 264 264 265 267 267 268 270 272 273 273 273 272 271 270 269 269 268 268 269 270 270 268 266 265 265 265 266 268 270 271 271 273 273 274 275 277
268 268 269 269 269 269 268 269 269 267 266 268 270 270 271 273 274 274 274 274 273 271 270 270 270 270 270 271 269 268 266 266 265 265 266 268 269 271 273 274 274 275 277 279
268 267 268 269 270 272 272 271 270 270 269 268 271 272 273 274 275 275 275 275 274 272 272 271 271 271 271 271 269 268 266 265 265 265 266 268 270 272 274 274 275 276 278 278
269 268 268 269 270 271 274 273 272 271 272 272 273 275 276 278 278 277 277 276 276 275 275 274 272 272 273 271 268 266 265 264 264 266 268 269 270 271 273 274 276 277 278 279
272 271 270 268 269 273 276 274 274 274 274 275 275 276 277 279 279 279 279 278 278 278 277 275 274 273 273 270 266 264 264 264 264 266 269 269 269 270 272 274 275 277 278 279
272 272 273 272 273 275 275 277 276 275 275 275 276 277 278 279 280 282 282 281 280 280 279 277 274 273 270 267 265 263 262 263 264 266 268 269 269 270 272 274 275 276 278 279
270 270 271 274 274 276 277 277 277 278 278 278 279 280 279 280 281 284 285 285 284 282 281 279 274 271 267 265 263 262 260 261 263 266 267 269 270 270 273 275 276 277 278 279
273 271 274 276 276 276 277 279 280 279 280 280 282 281 280 281 283 286 288 288 287 285 283 280 274 268 265 263 262 261 260 260 261 263 265 267 269 270 272 274 275 277 279 280
272 274 277 278 278 277 279 279 279 279 280 279 280 280 281 284 286 288 289 289 288 286 284 281 275 268 264 263 262 262 260 259 260 262 264 266 268 269 270 273 276 279 279 280
Height
5693 5695 5696 5697 5698 5699 5700 5702 5703 5704 5704 5705 5707 5708 5710 5710 5712 5713 5714 5716 5717 5718 5719 5720 5722 5723 5725 5726 5728 5729 5731 5732 5733 5734 5735 5735 5736 5736 5737 5738 5739 5739 5740 5740
5686 5688 5689 5689 5690 5691 5692 5694 5695 5695 5696 5696 5697 5699 5701 5702 5703 5705 5706 5707 5708 5709 5710 5711 5712 5714 5715 5717 5718 5719 5721 5722 5723 5724 5725 5726 5726 5727 5728 5728 5729 5729 5730 5731
5679 5681 5681 5682 5682 5683 5684 5686 5687 5687 5687 5687 5688 5690 5693 5694 5694 5696 5697 5698 5699 5700 5701 5701 5702 5704 5705 5706 5708 5709 5711 5712 5713 5714 5715 5716 5717 5717 5718 5718 5719 5719 5720 5720
5671 5672 5673 5674 5675 5676 5677 5678 5679 5679 5679 5679 5680 5680 5684 5685 5686 5687 5689 5689 5690 5691 5691 5692 5693 5694 5695 5697 5698 5699 5700 5701 5702 5704 5705 5706 5706 5707 5708 5708 5708 5709 5709 5710
5663 5664 5665 5666 5668 5668 5669 5670 5671 5671 5670 5671 5672 5671 5676 5676 5677 5679 5680 5681 5681 5682 5682 5683 5683 5684 5685 5687 5688 5689 5689 5690 5692 5693 5694 5695 5696 5697 5697 5698 5698 5698 5699 5699
5656 5656 5657 5658 5659 5660 5661 5662 5662 5662 5662 5663 5665 5664 5666 5668 5670 5670 5671 5672 5672 5672 5673 5673 5674 5675 5676 5677 5678 5678 5679 5680 5681 5682 5683 5684 5685 5686 5686 5687 5687 5687 5688 5688
5648 5649 5649 5650 5651 5652 5654 5655 5655 5654 5654 5655 5657 5655 5659 5661 5662 5662 5662 5663 5663 5663 5664 5664 5665 5665 5666 5667 5668 5668 5669 5670 5671 5671 5672 5673 5674 5674 5675 5676 5676 5676 5676 5676
5641 5642 5642 5643 5644 5645 5646 5647 5648 5648 5647 5648 5648 5648 5652 5652 5653 5653 5653 5654 5654 5654 5655 5655 5656 5656 5657 5657 5658 5659 5659 5660 5660 5661 5662 5662 5663 5663 5664 5664 5665 5665 5665 5665
5634 5635 5635 5636 5636 5637 5638 5639 5640 5640 5639 5640 5640 5642 5644 5644 5644 5644 5644 5645 5645 5646 5646 5646 5647 5647 5648 5648 5649 5649 5650 5650 5650 5651 5651 5651 5651 5652 5653 5653 5653 5653 5653 5653
5626 5627 5628 5628 5629 5629 5630 5631 5632 5632 5631 5632 5633 5634 5636 5636 5636 5636 5636 5636 5637 5637 5637 5637 5638 5639 5639 5639 5639 5640 5640 5640 5640 5640 5640 5641 5641 5641 5641 5641 5641 5641 5641 5641
5620 5620 5620 5620 5621 5622 5623 5624 5624 5624 5624 5625 5625 5629 5628 5628 5628 5628 5628 5628 5628 5629 5629 5629 5629 5629 5630 5630 5630 5630 5630 5630 5630 5630 5630 5630 5630 5630 5630 5630 5630 5630 5630 5630
5612 5612 5612 5613 5614 5614 5614 5616 5616 5617 5617 5617 5617 5623 5620 5620 5619 5619 5619 5619 5619 5620 5620 5619 5620 5620 5620 5620 5620 5620 5620 5620 5620 5620 5619 5619 5619 5619 5619 5619 5619 5619 5619 5618
5605 5605 5605 5605 5607 5607 5607 5608 5608 5609 5609 5609 5610 5615 5612 5612 5611 5611 5611 5611 5611 5611 5611 5610 5610 5610 5611 5611 5610 5610 5610 5610 5609 5609 5609 5609 5609 5609 5609 5609 5609 5608 5608 5608
5597 5597 5598 5599 5598 5599 5599 5601 5601 5601 5601 5601 5603 5605 5605 5603 5603 5603 5602 5602 5602 5602 5602 5602 5602 5601 5601 5601 5601 5600 5600 5600 5599 5599 5599 5599 5599 5599 5599 5599 5598 5598 5598 5597
5589 5590 5590 5590 5591 5591 5592 5593 5593 5593 5593 5594 5596 5596 5597 5595 5594 5594 5594 5593 5593 5594 5593 5593 5593 5593 5592 5592 5591 5591 5590 5590 5590 5590 5590 5590 5590 5590 5589 5589 5589 5588 5587 5586
5582 5583 5583 5583 5583 5583 5583 5585 5585 5585 5586 5586 5586 5588 5588 5586 5586 5586 5585 5585 5585 5585 5585 5584 5584 5583 5583 5582 5582 5581 5581 5580 5580 5580 5581 5581 5581 5580 5580 5579 5579 5578 5577 5576
5575 5576 5575 5576 5576 5575 5576 5579 5578 5578 5578 5578 5578 5580 5579 5578 5578 5578 5577 5576 5576 5576 5576 5575 5575 5574 5574 5573 5573 5572 5571 5571 5571 5571 5571 5572 5571 5571 5571 5570 5569 5568 5567 5566
5569 5569 5568 5568 5568 5567 5572 5571 5570 5570 5571 5571 5571 5571 5571 5570 5570 5569 5568 5567 5567 5567 5566 5566 5565 5565 5564 5564 5563 5562 5562 5562 5562 5562 5562 5562 5562 5562 5561 5560 5560 5559 5558 5556
5563 5562 5561 5561 5560 5560 5563 5563 5563 5563 5564 5564 5563 5563 5562 5562 5561 5561 5559 5558 5558 5557 5557 5556 5556 5555 5555 5554 5553 5553 5553 5553 5553 5553 5553 5553 5553 5553 5552 5551 5550 5549 5548 5547
5556 5556 5556 5555 5554 5554 5558 5556 5555 5556 5556 5556 5555 5554 5554 5553 5553 5553 5551 5549 5548 5548 5548 5547 5546 5546 5545 5545 5544 5544 5544 5544 5544 5544 5544 5544 5544 5544 5543 5542 5541 5540 5539 5538
5550 5549 5549 5548 5547 5547 5550 5549 5548 5550 5550 5548 5547 5546 5545 5544 5544 5543 5541 5540 5539 5538 5538 5537 5537 5536 5536 5535 5535 5535 5535 5535 5535 5535 5535 5535 5535 5534 5534 5533 5533 5532 5531 5530
5543 5543 5542 5541 5540 5544 5542 5541 5542 5542 5540 5539 5538 5537 5536 5535 5534 5533 5532 5531 5529 5528 5528 5527 5526 5526 5526 5525 5525 5525 5526 5526 5526 5527 5527 5527 5526 5526 5526 5525 5525 5524 5523 5522
5537 5537 5535 5535 5537 5536 5534 5534 5533 5533 5532 5531 5530 5529 5528 5527 5526 5525 5523 5522 5520 5519 5518 5517 5517 5516 5516 5516 5516 5516 5517 5517 5517 5518 5518 5518 5518 5518 5518 5518 5517 5517 5516 5515
5530 5529 5528 5527 5528 5528 5527 5526 5526 5525 5524 5523 5522 5521 5520 5519 5518 5517 5515 5514 5512 5510 5509 5508 5507 5507 5507 5507 5507 5507 5508 5509 5509 5510 5510 5511 5511 5511 5511 5511 5510 5510 5509 5508
5523 5522 5521 5520 5521 5520 5520 5519 5518 5517 5517 5516 5515 5514 5512 5512 5511 5509 5508 5506 5504 5502 5501 5500 5499 5499 5499 5499 5499 5500 5501 5501 5502 5503 5503 5504 5504 5504 5504 5504 5503 5503 5502 5501
5516 5515 5515 5514 5514 5513 5513 5512 5511 5511 5510 5509 5508 5507 5506 5505 5504 5502 5500 5499 5497 5495 5494 5493 5492 5492 5492 5492 5493 5493 5494 5495 5495 5496 5497 5497 5497 5498 5497 5497 5497 5496 5495 5494